1506740400.45,22761,15.38,74240.8,-3.53,-39.85,-40.03,0,*55
1506740401.72,22762,15.38,74244.0,-3.51,-39.79,-39.85,0,*57
1506740403.0,22763,15.38,74242.0,-3.51,-39.97,-40.21,0,*56
1506740404.24,22764,15.38,74244.0,-3.51,-40.03,-40.53,0,*57
1506740405.5,22765,15.38,74244.8,-3.51,-39.85,-40.21,0,*53
1506740406.73,22766,15.38,74240.5,-3.53,-40.03,-40.29,0,*5A
1506740407.97,22767,15.38,74240.8,-3.53,-39.85,-40.09,0,*59
1506740409.21,22768,15.38,74246.0,-3.53,-39.91,-40.21,0,*59
1506740410.45,22769,15.38,74242.3,-3.53,-39.85,-40.21,0,*5D
1506740411.66,22770,15.38,74242.0,-3.53,-39.47,-39.85,0,*5B
1506740412.93,22771,15.38,74244.5,-3.53,-39.71,-40.09,0,*55
1506740414.22,22772,15.38,74244.8,-3.51,-39.59,-39.97,0,*57
1506740415.49,22773,15.38,74246.3,-3.53,-39.71,-40.09,0,*57
1506740416.73,22774,15.38,74242.5,-3.53,-39.85,-40.29,0,*59
1506740417.97,22775,15.38,74240.5,-3.53,-40.09,-40.47,0,*5A
1506740419.2,22776,15.38,74246.0,-3.53,-40.03,-40.29,0,*5B
1506740420.44,22777,15.38,74240.3,-3.53,-39.85,-40.29,0,*5A
1506740421.71,22778,15.38,74248.5,-3.53,-40.09,-40.41,0,*51
1506740422.97,22779,15.38,74242.3,-3.53,-40.09,-40.29,0,*5E
1506740424.23,22780,15.38,74244.0,-3.55,-40.03,-40.21,0,*5C
1506740425.44,22781,15.38,74240.5,-3.57,-40.15,-40.47,0,*58
1506740426.71,22782,15.38,74244.3,-3.55,-39.91,-40.41,0,*5D
1506740427.95,22783,15.38,74244.3,-3.57,-39.91,-40.21,0,*58
1506740429.2,22784,15.38,74244.5,-3.57,-39.59,-39.91,0,*5E
1506740430.45,22785,15.38,74244.0,-3.55,-39.71,-40.03,0,*52
1506740431.7,22786,15.38,74240.0,-3.57,-39.91,-40.29,0,*55
1506740432.91,22787,15.38,74240.5,-3.57,-39.91,-40.15,0,*5B
1506740434.13,22788,15.38,74244.3,-3.57,-39.91,-40.15,0,*54
1506740435.35,22789,15.38,74242.8,-3.57,-39.91,-40.15,0,*55
1506740436.62,22790,15.38,74242.3,-3.57,-39.59,-39.79,0,*5D
1506740437.83,22791,15.38,74242.5,-3.57,-39.65,-39.91,0,*55
1506740439.09,22792,15.38,74244.5,-3.55,-39.47,-39.53,0,*5A
1506740440.34,22793,15.38,74246.0,-3.55,-39.53,-39.85,0,*55
1506740441.57,22794,15.38,74242.8,-3.55,-39.65,-39.91,0,*52
1506740442.83,22795,15.38,74240.3,-3.55,-39.85,-40.09,0,*52
1506740444.1,22796,15.38,74242.3,-3.57,-39.71,-39.97,0,*51
1506740445.35,22797,15.38,74244.3,-3.55,-39.53,-39.85,0,*51
1506740446.61,22798,15.38,74242.8,-3.55,-39.71,-39.91,0,*5B
1506740447.87,22799,15.38,74240.8,-3.55,-39.85,-40.21,0,*54
1506740449.11,22800,15.38,74244.5,-3.55,-39.65,-39.91,0,*50
1506740450.39,22801,15.38,74242.8,-3.55,-39.53,-39.71,0,*5A
1506740451.62,22802,15.38,74242.5,-3.55,-39.47,-39.91,0,*52
1506740452.87,22803,15.38,74240.0,-3.55,-39.23,-39.47,0,*5A
1506740454.12,22804,15.38,74240.0,-3.55,-39.47,-39.53,0,*5A
1506740455.35,22805,15.38,74240.5,-3.55,-39.65,-39.85,0,*50
1506740456.58,22806,15.38,74246.0,-3.55,-39.65,-39.85,0,*53
1506740457.83,22807,15.38,74244.8,-3.57,-39.79,-40.15,0,*5A
1506740459.11,22808,15.38,74242.3,-3.55,-39.41,-39.53,0,*50
1506740460.36,22809,15.38,74244.3,-3.55,-39.53,-39.91,0,*5C
1506740461.63,22810,15.38,74246.3,-3.57,-39.79,-40.09,0,*51
1506740462.92,22811,15.38,74242.5,-3.55,-39.71,-40.09,0,*5A
1506740464.18,22812,15.38,74240.0,-3.55,-39.71,-40.03,0,*53
1506740465.44,22813,15.38,74242.3,-3.55,-39.47,-39.71,0,*5C
1506740466.7,22814,15.38,74242.5,-3.55,-39.71,-39.85,0,*55
1506740467.99,22815,15.38,74244.5,-3.55,-39.71,-40.09,0,*5E
1506740469.24,22816,15.38,74240.8,-3.55,-39.71,-40.03,0,*57
1506740470.5,22817,15.38,74242.8,-3.55,-39.65,-39.71,0,*58
1506740471.78,22818,15.38,74242.8,-3.55,-38.91,-39.23,0,*5A
1506740473.04,22819,15.38,74240.0,-3.55,-39.03,-39.09,0,*59
1506740474.28,22820,15.38,74242.8,-3.55,-39.29,-39.47,0,*51
1506740475.54,22821,15.38,74242.8,-3.55,-39.41,-39.47,0,*5E
1506740476.81,22822,15.38,74242.8,-3.55,-39.03,-39.23,0,*59
1506740478.05,22823,15.38,74240.8,-3.53,-39.09,-39.29,0,*5E
1506740479.3,22824,15.38,74240.8,-3.53,-39.03,-39.23,0,*59
1506740480.58,22825,15.38,74242.3,-3.51,-39.23,-39.41,0,*5C
1506740481.87,22826,15.38,74242.8,-3.51,-39.15,-39.41,0,*5A
1506740483.1,22827,15.38,74244.8,-3.53,-39.09,-39.41,0,*54
1506740484.36,22828,15.38,74242.8,-3.51,-39.15,-39.35,0,*57
1506740485.61,22829,15.38,74240.8,-3.51,-38.97,-39.15,0,*5F
1506740486.85,22830,15.38,74242.0,-3.51,-39.35,-39.65,0,*59
1506740488.1,22831,15.38,74240.0,-3.51,-38.97,-39.23,0,*53
1506740489.36,22832,15.38,74242.5,-3.51,-39.15,-39.35,0,*5C
1506740490.64,22833,15.38,74242.0,-3.51,-39.23,-39.41,0,*5B
1506740491.89,22834,15.38,74244.0,-3.51,-39.35,-39.41,0,*5B
1506740493.17,22835,15.38,74240.0,-3.51,-39.03,-39.23,0,*5B
1506740494.43,22836,15.38,74244.8,-3.51,-39.15,-39.35,0,*58
1506740495.65,22837,15.38,74240.8,-3.49,-39.23,-39.35,0,*55
1506740496.9,22838,15.38,74242.0,-3.47,-39.35,-39.41,0,*50
1506740498.13,22839,15.38,74242.8,-3.49,-39.41,-39.65,0,*5A
1506740499.36,22840,15.38,74242.8,-3.49,-38.97,-39.23,0,*5C
1506740500.62,22841,15.38,74242.3,-3.49,-39.15,-39.23,0,*56
1506740501.9,22842,15.38,74242.5,-3.47,-39.41,-39.59,0,*57
1506740503.11,22843,15.38,74242.8,-3.49,-39.65,-39.85,0,*5F
1506740504.35,22844,15.38,74242.3,-3.49,-39.41,-39.65,0,*50
1506740505.6,22845,15.38,74240.5,-3.49,-39.03,-39.15,0,*50
1506740506.83,22846,15.38,74240.8,-3.49,-38.97,-39.15,0,*5F
1506740508.06,22847,15.38,74244.5,-3.49,-39.23,-39.35,0,*52
1506740509.28,22848,15.38,74242.8,-3.47,-39.09,-39.35,0,*5B
1506740510.53,22849,15.38,74244.0,-3.47,-38.97,-39.15,0,*5E
1506740511.78,22850,15.38,74240.5,-3.47,-39.09,-39.15,0,*50
1506740513.01,22851,15.38,74242.3,-3.45,-39.15,-39.35,0,*5C
1506740514.26,22852,15.38,74242.5,-3.49,-39.23,-39.41,0,*55
1506740515.51,22853,15.38,74240.0,-3.47,-38.97,-39.29,0,*5A
1506740516.76,22854,15.38,74242.8,-3.47,-39.35,-39.41,0,*5A
1506740518.01,22855,15.31,74238.5,-3.47,-39.09,-39.15,0,*55
1506740519.26,22856,15.38,74242.8,-3.45,-39.29,-39.29,0,*59
1506740520.51,22857,15.38,74240.0,-3.43,-39.35,-39.53,0,*5E
1506740521.73,22858,15.38,74244.8,-3.45,-39.35,-39.41,0,*54
1506740522.95,22859,15.38,74240.5,-3.45,-39.29,-39.35,0,*5B
1506740524.15,22860,15.38,74240.8,-3.45,-39.35,-39.35,0,*5C
1506740525.41,22861,15.38,74240.3,-3.45,-39.41,-39.59,0,*54
1506740526.6,22862,15.38,74242.8,-3.45,-38.97,-39.35,0,*57
1506740527.82,22863,15.38,74246.0,-3.45,-39.29,-39.35,0,*52
1506740529.05,22864,15.38,74244.3,-3.45,-39.59,-39.91,0,*5C
1506740530.33,22865,15.38,74240.0,-3.43,-39.53,-39.71,0,*5F
1506740531.59,22866,15.38,74242.3,-3.43,-39.47,-39.53,0,*59
1506740532.84,22867,15.38,74240.0,-3.45,-39.53,-39.71,0,*5B
1506740534.09,22868,15.38,74242.3,-3.45,-39.41,-39.71,0,*57
1506740535.36,22869,15.38,74240.0,-3.47,-39.59,-39.91,0,*53
1506740536.61,22870,15.38,74240.5,-3.47,-39.35,-39.71,0,*5F
1506740537.89,22871,15.38,74242.5,-3.43,-39.53,-39.71,0,*5A
1506740539.11,22872,15.38,74244.5,-3.45,-39.35,-39.41,0,*5C
1506740540.39,22873,15.38,74244.0,-3.47,-39.41,-39.71,0,*5F
1506740541.64,22874,15.31,74240.5,-3.47,-39.35,-39.59,0,*51
1506740542.92,22875,15.38,74240.8,-3.47,-39.41,-39.71,0,*59
1506740544.18,22876,15.38,74244.8,-3.43,-39.47,-39.71,0,*58
1506740545.45,22877,15.38,74244.8,-3.45,-39.59,-39.79,0,*58
1506740546.7,22878,15.38,74244.0,-3.45,-39.41,-39.59,0,*5C
1506740547.96,22879,15.38,74242.3,-3.45,-39.41,-39.59,0,*5D
1506740549.22,22880,15.38,74240.3,-3.45,-39.71,-39.79,0,*5A
1506740550.42,22881,15.38,74240.8,-3.45,-39.35,-39.35,0,*53
1506740551.63,22882,15.31,74240.3,-3.45,-39.29,-39.35,0,*5D
1506740552.9,22883,15.38,74242.0,-3.45,-39.59,-39.79,0,*53
1506740554.15,22884,15.38,74240.3,-3.45,-39.53,-39.71,0,*56
1506740555.4,22885,15.38,74240.3,-3.45,-39.53,-39.59,0,*5D
1506740556.67,22886,15.38,74240.5,-3.45,-39.59,-39.71,0,*5E
1506740557.95,22887,15.38,74244.3,-3.47,-39.71,-40.09,0,*56
1506740559.21,22888,15.38,74240.3,-3.45,-39.71,-39.97,0,*52
1506740560.49,22889,15.38,74242.8,-3.47,-39.53,-39.79,0,*51
1506740561.77,22890,15.38,74242.8,-3.47,-39.41,-39.71,0,*52
1506740563.03,22891,15.38,74242.8,-3.45,-39.59,-40.09,0,*59
1506740564.32,22892,15.38,74240.0,-3.47,-39.71,-39.97,0,*5B
1506740565.57,22893,15.31,74242.5,-3.45,-39.53,-39.79,0,*58
1506740566.82,22894,15.38,74240.3,-3.45,-39.41,-39.59,0,*5E
1506740568.11,22895,15.38,74242.8,-3.47,-39.15,-39.29,0,*5B
1506740569.39,22896,15.31,74238.0,-3.47,-39.59,-39.79,0,*55
1506740570.65,22897,15.38,74240.5,-3.47,-39.59,-39.91,0,*52
1506740571.91,22898,15.38,74242.8,-3.47,-39.09,-39.29,0,*5B
1506740573.19,22899,15.38,74240.8,-3.47,-39.41,-39.59,0,*51
1506740574.44,22900,15.38,74242.0,-3.47,-39.35,-39.59,0,*53
1506740575.67,22901,15.38,74242.8,-3.45,-39.15,-39.35,0,*58
1506740576.89,22902,15.31,74240.5,-3.45,-39.29,-39.35,0,*54
1506740578.14,22903,15.38,74244.0,-3.45,-39.29,-39.41,0,*56
1506740579.34,22904,15.38,74242.0,-3.45,-38.97,-39.09,0,*59
1506740580.57,22905,15.38,74246.0,-3.45,-39.09,-39.29,0,*5C
1506740581.82,22906,15.38,74240.5,-3.45,-39.15,-39.41,0,*5C
1506740583.08,22907,15.38,74242.8,-3.43,-39.53,-39.65,0,*5F
1506740584.35,22908,15.38,74244.5,-3.43,-39.29,-39.53,0,*58
1506740585.57,22909,15.31,74242.3,-3.45,-39.29,-39.35,0,*5F
1506740586.77,22910,15.38,74242.8,-3.45,-39.35,-39.35,0,*5A
1506740588.02,22911,15.31,74242.5,-3.43,-39.29,-39.65,0,*55
1506740589.28,22912,15.31,74240.3,-3.45,-39.41,-39.59,0,*51
1506740590.48,22913,15.38,74244.5,-3.45,-38.97,-39.09,0,*5F
1506740591.71,22914,15.31,74240.8,-3.43,-39.35,-39.65,0,*5D
1506740592.98,22915,15.38,74244.5,-3.43,-39.29,-39.53,0,*54
1506740594.24,22916,15.38,74242.8,-3.43,-39.47,-39.71,0,*5F
1506740595.52,22917,15.38,74242.0,-3.43,-39.53,-39.71,0,*5B
1506740596.8,22918,15.38,74244.0,-3.43,-39.29,-39.29,0,*54
1506740598.03,22919,15.38,74242.0,-3.43,-39.47,-39.65,0,*55
1506740599.29,22920,15.31,74240.8,-3.43,-39.53,-39.91,0,*51
1506740600.54,22921,15.38,74242.5,-3.43,-39.47,-39.53,0,*5B
1506740601.78,22922,15.38,74242.3,-3.43,-39.47,-39.65,0,*5D
1506740603.0,22923,15.38,74244.5,-3.45,-39.53,-39.85,0,*51
1506740604.27,22924,15.31,74240.8,-3.43,-39.29,-39.53,0,*56
1506740605.5,22925,15.31,74240.8,-3.45,-38.97,-39.15,0,*57
1506740606.75,22926,15.31,74242.5,-3.43,-39.09,-39.29,0,*5B
1506740607.99,22927,15.38,74240.5,-3.43,-39.47,-39.65,0,*58
1506740609.22,22928,15.38,74242.8,-3.43,-39.47,-39.65,0,*57
1506740610.48,22929,15.38,74246.0,-3.43,-39.35,-39.71,0,*56
1506740611.72,22930,15.38,74240.0,-3.43,-39.47,-39.65,0,*5E
1506740612.95,22931,15.38,74242.3,-3.43,-39.65,-39.91,0,*54
1506740614.21,22932,15.38,74242.0,-3.43,-39.65,-39.71,0,*59
1506740615.43,22933,15.38,74242.5,-3.45,-39.35,-39.53,0,*5B
1506740616.67,22934,15.31,74240.0,-3.45,-39.59,-39.91,0,*58
1506740617.93,22935,15.31,74240.0,-3.45,-39.71,-39.97,0,*55
1506740619.16,22936,15.38,74242.0,-3.43,-39.65,-40.03,0,*56
1506740620.42,22937,15.38,74246.3,-3.43,-39.71,-40.03,0,*52
1506740621.68,22938,15.38,74240.5,-3.45,-39.79,-40.29,0,*5B
1506740622.93,22939,15.38,74240.5,-3.45,-39.97,-40.29,0,*5A
1506740624.17,22940,15.38,74242.8,-3.45,-39.91,-40.29,0,*52
1506740625.43,22941,15.38,74240.3,-3.47,-39.79,-40.15,0,*58
1506740626.68,22942,15.31,74240.5,-3.47,-40.09,-40.35,0,*50
1506740627.91,22943,15.31,74238.8,-3.45,-39.97,-40.47,0,*5F
1506740629.17,22944,15.31,74242.3,-3.45,-39.71,-40.09,0,*5A
1506740630.43,22945,15.38,74240.3,-3.45,-39.71,-40.09,0,*5B
1506740631.72,22946,15.38,74242.3,-3.47,-39.79,-40.09,0,*52
1506740632.98,22947,15.38,74242.8,-3.47,-39.91,-40.29,0,*57
1506740634.24,22948,15.38,74242.3,-3.47,-39.71,-40.15,0,*59
1506740635.48,22949,15.38,74240.3,-3.49,-39.79,-40.15,0,*5E
1506740636.76,22950,15.38,74242.0,-3.47,-39.53,-39.71,0,*5C
1506740638.04,22951,15.31,74242.3,-3.47,-39.59,-39.79,0,*5F
1506740639.32,22952,15.31,74240.3,-3.47,-39.71,-39.97,0,*56
1506740640.59,22953,15.31,74240.5,-3.47,-39.59,-39.91,0,*5B
1506740641.88,22954,15.31,74240.3,-3.47,-39.79,-40.09,0,*51
1506740643.11,22955,15.38,74240.8,-3.47,-39.91,-40.15,0,*5B
1506740644.34,22956,15.31,74242.5,-3.49,-40.03,-40.41,0,*52
1506740645.58,22957,15.38,74240.0,-3.47,-39.91,-40.15,0,*59
1506740646.81,22958,15.38,74240.3,-3.49,-40.03,-40.21,0,*5A
1506740648.03,22959,15.38,74242.3,-3.49,-40.15,-40.53,0,*59
1506740649.28,22960,15.38,74242.8,-3.49,-39.97,-40.21,0,*52
1506740650.52,22961,15.38,74240.5,-3.49,-39.91,-40.09,0,*5F
1506740651.82,22962,15.31,74240.3,-3.51,-39.59,-39.79,0,*58
1506740653.08,22963,15.38,74242.5,-3.51,-39.65,-39.97,0,*56
1506740654.32,22964,15.38,74240.5,-3.51,-39.85,-40.03,0,*5C
1506740655.61,22965,15.31,74242.5,-3.51,-39.79,-40.21,0,*5E
1506740656.83,22966,15.38,74242.3,-3.51,-39.35,-39.47,0,*5B
1506740658.09,22967,15.38,74242.8,-3.51,-39.35,-39.41,0,*5C
1506740659.36,22968,15.38,74240.5,-3.49,-39.59,-39.79,0,*5B
1506740660.56,22969,15.38,74242.8,-3.49,-39.65,-39.85,0,*56
1506740661.8,22970,15.38,74242.8,-3.49,-39.59,-39.85,0,*51
1506740663.04,22971,15.31,74242.0,-3.49,-39.85,-40.21,0,*51
1506740664.3,22972,15.38,74244.5,-3.49,-39.97,-40.21,0,*51
1506740665.54,22973,15.38,74240.8,-3.49,-39.79,-40.15,0,*57
1506740666.75,22974,15.31,74242.0,-3.49,-39.85,-40.15,0,*53
1506740667.99,22975,15.38,74240.3,-3.53,-39.85,-40.21,0,*5E
1506740669.28,22976,15.31,74242.5,-3.51,-39.59,-39.97,0,*5D
1506740670.52,22977,15.31,74238.5,-3.51,-39.65,-39.85,0,*50
1506740671.75,22978,15.38,74240.3,-3.53,-39.85,-40.21,0,*53
1506740672.99,22979,15.31,74240.0,-3.51,-39.85,-40.03,0,*50
1506740674.24,22980,15.31,74240.3,-3.51,-39.35,-39.41,0,*55
1506740675.51,22981,15.38,74242.5,-3.51,-39.47,-39.79,0,*5A
1506740676.74,22982,15.38,74242.8,-3.51,-39.65,-40.03,0,*5A
1506740678.03,22983,15.38,74240.5,-3.51,-39.79,-39.97,0,*55
1506740679.26,22984,15.31,74240.5,-3.53,-39.47,-39.53,0,*55
1506740680.53,22985,15.31,74242.3,-3.51,-39.79,-40.03,0,*50
1506740681.79,22986,15.38,74240.5,-3.51,-39.79,-40.03,0,*53
1506740683.09,22987,15.38,74240.8,-3.51,-39.79,-39.97,0,*51
1506740684.35,22988,15.38,74242.8,-3.51,-39.79,-40.03,0,*5D
1506740685.56,22989,15.38,74242.5,-3.53,-39.65,-39.91,0,*56
1506740686.83,22990,15.31,74242.8,-3.51,-39.41,-39.65,0,*51
1506740688.06,22991,15.38,74242.0,-3.53,-39.53,-39.85,0,*5F
1506740689.27,22992,15.31,74242.0,-3.53,-39.65,-39.85,0,*59
1506740690.53,22993,15.31,74236.8,-3.51,-39.47,-39.79,0,*59
1506740691.79,22994,15.38,74242.0,-3.51,-39.65,-39.97,0,*5E
1506740693.06,22995,15.38,74242.3,-3.51,-39.79,-40.15,0,*56
1506740694.36,22996,15.38,74240.0,-3.51,-39.79,-40.21,0,*52
1506740695.59,22997,15.38,74244.3,-3.51,-39.47,-39.47,0,*50
1506740696.85,22998,15.31,74240.0,-3.51,-39.65,-39.97,0,*52
1506740698.11,22999,15.31,74242.3,-3.51,-39.65,-39.97,0,*53
1506740699.37,23000,15.38,74242.3,-3.51,-39.65,-39.97,0,*5B
1506740700.63,23001,15.38,74240.8,-3.51,-39.65,-39.97,0,*5A
1506740701.89,23002,15.31,74240.5,-3.51,-39.65,-39.97,0,*59
1506740703.13,23003,15.38,74246.0,-3.53,-39.85,-40.21,0,*57
1506740704.37,23004,15.38,74242.3,-3.53,-39.85,-40.29,0,*58
1506740705.61,23005,15.31,74240.0,-3.53,-39.71,-40.03,0,*5A
1506740706.87,23006,15.38,74240.3,-3.51,-39.59,-39.85,0,*51
1506740708.09,23007,15.38,74240.8,-3.53,-39.65,-39.91,0,*58
1506740709.33,23008,15.31,74242.5,-3.53,-39.91,-40.29,0,*51
1506740710.6,23009,15.31,74242.5,-3.53,-40.09,-40.41,0,*51
1506740711.86,23010,15.31,74240.8,-3.53,-39.97,-40.41,0,*50
1506740713.11,23011,15.31,74238.5,-3.55,-40.03,-40.29,0,*5A
1506740714.35,23012,15.31,74242.8,-3.53,-39.91,-40.29,0,*5A
1506740715.59,23013,15.31,74240.5,-3.53,-39.85,-40.21,0,*56
1506740716.85,23014,15.31,74242.8,-3.55,-39.85,-40.21,0,*57
1506740718.11,23015,15.31,74240.0,-3.55,-39.91,-40.29,0,*5B
1506740719.37,23016,15.31,74240.5,-3.55,-39.85,-40.21,0,*55
1506740720.63,23017,15.38,74242.3,-3.55,-39.91,-40.21,0,*51
1506740721.87,23018,15.31,74240.5,-3.57,-39.53,-39.85,0,*52
1506740723.13,23019,15.31,74242.3,-3.55,-39.71,-39.91,0,*54
1506740724.4,23020,15.31,74238.8,-3.57,-39.79,-40.09,0,*5B
1506740725.66,23021,15.38,74240.3,-3.55,-39.91,-40.21,0,*54
1506740726.92,23022,15.31,74240.5,-3.55,-39.65,-39.71,0,*57
1506740728.15,23023,15.31,74240.0,-3.55,-39.65,-40.03,0,*5D
1506740729.41,23024,15.31,74242.3,-3.55,-39.47,-39.71,0,*51
1506740730.67,23025,15.31,74240.5,-3.55,-39.47,-39.71,0,*50
1506740731.93,23026,15.31,74242.8,-3.55,-39.65,-39.71,0,*53
1506740733.16,23027,15.31,74240.3,-3.53,-39.47,-39.53,0,*54
1506740734.37,23028,15.31,74240.8,-3.53,-39.65,-40.03,0,*50
1506740735.6,23029,15.31,74242.5,-3.53,-39.53,-39.85,0,*54
1506740736.84,23030,15.31,74240.5,-3.53,-39.71,-39.91,0,*59
1506740738.05,23031,15.31,74242.8,-3.53,-39.47,-39.85,0,*58
1506740739.29,23032,15.38,74240.3,-3.53,-39.71,-40.03,0,*5E
1506740740.53,23033,15.31,74238.5,-3.53,-39.85,-40.29,0,*5C
1506740741.82,23034,15.38,74240.8,-3.55,-39.71,-40.09,0,*54
1506740743.08,23035,15.31,74240.8,-3.55,-39.91,-40.21,0,*51
1506740744.34,23036,15.38,74242.5,-3.55,-39.85,-40.21,0,*57
1506740745.62,23037,15.38,74242.3,-3.55,-39.53,-39.71,0,*56
1506740746.85,23038,15.31,74240.0,-3.55,-39.65,-39.85,0,*57
1506740748.06,23039,15.38,74240.8,-3.53,-39.65,-39.85,0,*50
1506740749.3,23040,15.31,74242.0,-3.53,-39.91,-40.21,0,*55
1506740750.54,23041,15.31,74240.8,-3.53,-39.71,-39.91,0,*5F
1506740751.83,23042,15.31,74238.8,-3.55,-39.71,-40.21,0,*5F
1506740753.09,23043,15.38,74240.5,-3.55,-39.91,-40.29,0,*58
1506740754.35,23044,15.31,74242.3,-3.55,-39.91,-40.29,0,*5F
1506740755.6,23045,15.31,74242.5,-3.55,-40.03,-40.21,0,*53
1506740756.88,23046,15.31,74242.5,-3.57,-39.79,-40.09,0,*5B
1506740758.14,23047,15.31,74242.5,-3.55,-39.85,-40.09,0,*5B
1506740759.38,23048,15.31,74240.8,-3.55,-39.65,-39.91,0,*55
1506740760.62,23049,15.31,74240.3,-3.57,-39.91,-40.09,0,*52
1506740761.89,23050,15.31,74242.0,-3.57,-39.59,-39.79,0,*57
1506740763.15,23051,15.38,74240.8,-3.55,-39.85,-40.21,0,*56
1506740764.41,23052,15.38,74242.5,-3.57,-39.97,-40.29,0,*5C
1506740765.68,23053,15.38,74242.0,-3.57,-39.71,-40.09,0,*57
1506740766.94,23054,15.31,74240.0,-3.57,-39.53,-39.59,0,*5B
1506740768.22,23055,15.31,74240.5,-3.55,-39.71,-39.97,0,*5A
1506740769.47,23056,15.38,74240.8,-3.57,-39.79,-40.15,0,*57
1506740770.71,23057,15.38,74244.0,-3.57,-40.09,-40.15,0,*5F
1506740771.92,23058,15.38,74244.5,-3.57,-39.47,-39.91,0,*56
1506740773.2,23059,15.38,74242.0,-3.57,-39.79,-40.09,0,*55
1506740774.46,23060,15.31,74240.3,-3.57,-40.09,-40.29,0,*54
1506740775.71,23061,15.31,74240.3,-3.57,-39.91,-40.09,0,*58
1506740776.98,23062,15.38,74242.3,-3.57,-39.59,-39.79,0,*56
1506740778.25,23063,15.31,74240.5,-3.57,-39.79,-40.09,0,*5C
1506740779.46,23064,15.31,74242.8,-3.57,-39.91,-40.35,0,*52
1506740780.74,23065,15.38,74242.8,-3.57,-39.59,-40.09,0,*58
1506740782.03,23066,15.31,74242.3,-3.59,-39.79,-39.97,0,*5E
1506740783.3,23067,15.31,74242.3,-3.59,-39.59,-39.91,0,*5B
1506740784.54,23068,15.38,74242.3,-3.57,-39.47,-39.59,0,*51
1506740785.81,23069,15.31,74238.0,-3.57,-39.79,-39.97,0,*5F
1506740787.05,23070,15.31,74242.5,-3.57,-39.71,-39.91,0,*59
1506740788.27,23071,15.31,74242.8,-3.57,-39.91,-40.15,0,*54
1506740789.5,23072,15.31,74242.5,-3.57,-39.97,-40.15,0,*51
1506740790.76,23073,15.31,74242.3,-3.57,-39.97,-40.29,0,*5F
1506740792.03,23074,15.31,74240.3,-3.57,-39.79,-39.97,0,*53
1506740793.3,23075,15.31,74242.5,-3.57,-39.71,-40.09,0,*53
1506740794.54,23076,15.31,74242.5,-3.57,-39.91,-40.29,0,*5C
1506740795.83,23077,15.31,74242.0,-3.59,-39.59,-39.79,0,*5C
1506740797.1,23078,15.38,74242.0,-3.59,-39.59,-39.91,0,*55
1506740798.37,23079,15.31,74240.3,-3.59,-39.79,-40.15,0,*54
1506740799.61,23080,15.31,74240.0,-3.59,-39.91,-40.15,0,*54
1506740800.91,23081,15.31,74240.3,-3.59,-39.79,-40.09,0,*5E
1506740802.15,23082,15.31,74242.8,-3.59,-39.91,-40.15,0,*56
1506740803.38,23083,15.31,74240.3,-3.61,-39.97,-40.35,0,*58
1506740804.65,23084,15.31,74242.3,-3.59,-39.59,-39.91,0,*56
1506740805.89,23085,15.31,74236.8,-3.59,-39.91,-40.15,0,*51
1506740807.16,23086,15.31,74242.0,-3.59,-39.79,-40.15,0,*54
1506740808.43,23087,15.31,74242.5,-3.59,-39.79,-40.15,0,*55
1506740809.66,23088,15.38,74242.5,-3.59,-39.91,-40.35,0,*5E
1506740810.93,23089,15.31,74240.3,-3.59,-39.91,-40.29,0,*52
1506740812.21,23090,15.38,74244.0,-3.59,-39.71,-39.97,0,*5F
1506740813.43,23091,15.31,74242.5,-3.61,-39.85,-40.15,0,*5A
1506740814.67,23092,15.31,74238.8,-3.61,-39.91,-40.29,0,*53
1506740815.9,23093,15.31,74236.8,-3.61,-39.97,-40.35,0,*59
1506740817.17,23094,15.38,74246.3,-3.59,-39.79,-40.15,0,*57
1506740818.43,23095,15.31,74242.0,-3.61,-39.97,-40.21,0,*5A
1506740819.73,23096,15.31,74240.8,-3.59,-39.79,-40.09,0,*58
1506740820.94,23097,15.31,74240.0,-3.61,-39.65,-40.03,0,*55
1506740822.18,23098,15.31,74238.5,-3.61,-39.41,-39.65,0,*52
1506740823.39,23099,15.31,74240.3,-3.61,-39.85,-40.15,0,*52
1506740824.65,23100,15.31,74240.3,-3.61,-39.97,-40.21,0,*57
1506740825.86,23101,15.31,74236.3,-3.61,-39.85,-40.03,0,*55
1506740827.07,23102,15.31,74240.8,-3.61,-39.85,-40.03,0,*56
1506740828.34,23103,15.31,74240.3,-3.61,-39.79,-39.97,0,*57
1506740829.58,23104,15.31,74240.5,-3.61,-39.79,-40.03,0,*53
1506740830.8,23105,15.38,74246.8,-3.61,-39.85,-40.15,0,*56
1506740832.01,23106,15.31,74240.0,-3.61,-39.85,-40.03,0,*52
1506740833.25,23107,15.31,74240.0,-3.65,-39.71,-39.91,0,*59
1506740834.54,23108,15.31,74238.0,-3.59,-39.71,-40.09,0,*56
1506740835.78,23109,15.31,74240.8,-3.61,-39.85,-40.21,0,*5D
1506740837.02,23110,15.31,74240.8,-3.61,-39.59,-40.03,0,*54
1506740838.24,23111,15.31,74240.3,-3.61,-39.85,-40.15,0,*53
1506740839.48,23112,15.31,74244.3,-3.65,-39.85,-40.09,0,*59
1506740840.75,23113,15.31,74244.3,-3.61,-39.59,-39.97,0,*54
1506740841.96,23114,15.31,74244.5,-3.61,-39.85,-40.03,0,*51
1506740843.21,23115,15.31,74242.3,-3.61,-39.79,-40.15,0,*54
1506740844.42,23116,15.31,74240.3,-3.61,-39.65,-39.85,0,*5D
1506740845.68,23117,15.31,74242.5,-3.59,-39.71,-39.91,0,*57
1506740846.89,23118,15.31,74240.0,-3.61,-39.85,-40.03,0,*5D
1506740848.14,23119,15.31,74240.8,-3.61,-39.59,-39.65,0,*53
1506740849.38,23120,15.31,74240.3,-3.61,-39.59,-39.85,0,*57
1506740850.62,23121,15.31,74242.5,-3.61,-39.65,-39.97,0,*5A
1506740851.83,23122,15.31,74242.0,-3.61,-39.65,-39.85,0,*5A
1506740853.07,23123,15.31,74242.3,-3.61,-39.65,-39.97,0,*58
1506740854.31,23124,15.31,74240.0,-3.61,-39.85,-39.97,0,*51
1506740855.55,23125,15.31,74242.3,-3.61,-39.65,-39.97,0,*5E
1506740856.81,23126,15.31,74242.3,-3.61,-39.79,-39.97,0,*50
1506740858.1,23127,15.31,74242.3,-3.59,-39.53,-39.79,0,*52
1506740859.35,23128,15.31,74240.3,-3.59,-39.29,-39.47,0,*5D
1506740860.6,23129,15.31,74244.3,-3.59,-39.47,-39.53,0,*51
1506740861.88,23130,15.38,74244.3,-3.59,-39.53,-39.53,0,*5C
1506740863.14,23131,15.31,74242.3,-3.59,-39.47,-39.79,0,*50
1506740864.4,23132,15.31,74240.3,-3.59,-39.35,-39.53,0,*5E
1506740865.66,23133,15.31,74242.5,-3.59,-39.59,-39.91,0,*5B
1506740866.93,23134,15.31,74242.3,-3.59,-39.59,-39.91,0,*5C
1506740868.2,23135,15.38,74244.8,-3.59,-39.59,-39.85,0,*58
1506740869.44,23136,15.31,74240.5,-3.61,-39.65,-39.97,0,*5C
1506740870.7,23137,15.31,74242.3,-3.59,-39.71,-39.91,0,*55
1506740871.96,23138,15.31,74242.8,-3.61,-39.53,-39.79,0,*57
1506740873.24,23139,15.31,74240.8,-3.59,-39.53,-39.79,0,*5D
1506740874.5,23140,15.31,74242.5,-3.59,-39.35,-39.53,0,*5B
1506740875.76,23141,15.31,74240.5,-3.59,-39.47,-39.59,0,*55
1506740877.04,23142,15.31,74240.3,-3.59,-39.53,-39.79,0,*51
1506740878.3,23143,15.31,74244.0,-3.59,-39.53,-39.91,0,*56
1506740879.58,23144,15.31,74242.5,-3.59,-39.53,-39.59,0,*55
1506740880.82,23145,15.38,74246.3,-3.57,-39.53,-39.91,0,*5E
1506740882.08,23146,15.31,74240.8,-3.57,-39.53,-39.79,0,*5B
1506740883.35,23147,15.31,74240.5,-3.59,-39.71,-39.91,0,*52
1506740884.61,23148,15.31,74240.8,-3.59,-39.47,-39.59,0,*5C
1506740885.88,23149,15.38,74246.5,-3.57,-39.59,-39.97,0,*5E
1506740887.14,23150,15.31,74242.8,-3.57,-39.53,-39.79,0,*5C
1506740888.38,23151,15.31,74242.5,-3.57,-39.71,-39.91,0,*5B
1506740889.65,23152,15.38,74246.8,-3.57,-39.79,-39.97,0,*56
1506740890.89,23153,15.31,74238.3,-3.57,-39.71,-39.91,0,*59
1506740892.18,23154,15.31,74240.5,-3.59,-39.71,-40.09,0,*5F
1506740893.48,23155,15.31,74240.8,-3.59,-39.79,-40.09,0,*56
1506740894.75,23156,15.31,74236.0,-3.59,-39.91,-40.09,0,*53
1506740896.04,23157,15.31,74240.5,-3.59,-39.59,-39.97,0,*5F
1506740897.33,23158,15.31,74242.5,-3.59,-39.79,-40.09,0,*5B
1506740898.6,23159,15.31,74240.8,-3.61,-39.79,-39.97,0,*58
1506740899.84,23160,15.31,74240.3,-3.61,-39.65,-39.97,0,*5F